Regional Weather Roundup
Issued by NWS

Home | Current Version | Previous Version | Text Only | Print | Product List | Glossary Off
Versions: 1 2 3 4 5 6 7 8 9 10 11 12 13 14 15 16 17 18 19 20 21 22 23 24 25 26 27 28 29 30 31 32 33 34 35 36 37 38 39 40 41 42 43 44 45 46 47 48 49 50

069
ASUS43 KMPX 300301
RWRMN
WEATHER ROUNDUP FOR MINNESOTA
NATIONAL WEATHER SERVICE TWIN CITIES/CHANHASSEN MN
1000 PM CDT SAT APR 29 2017


NOTE: "FAIR" INDICATES FEW OR NO CLOUDS BELOW 12,000 FEET WITH NO
SIGNIFICANT WEATHER AND/OR OBSTRUCTIONS TO VISIBILITY. N/A MEANS
CURRENT SKY AND/OR WEATHER CONDITIONS ARE NOT AVAILABLE.

MNZ060>063-068>070-300400-
   Twin Cities Metro

CITY           SKY/WX    TMP DP  RH WIND       PRES   REMARKS
TWIN CITIES    CLOUDY    51  23  33 NE17      30.20R
ST PAUL        CLOUDY    50  26  39 NE13      30.21R
CRYSTAL        CLOUDY    49  18  29 NE9       30.20R
LAKEVILLE      CLOUDY    48  28  46 NE12      30.19R
EDEN PRAIRIE   CLOUDY    52  23  32 NE13      30.19R
SOUTH ST PAUL  CLOUDY    51  24  35 NE10G17   30.20R
LAKE ELMO      FAIR      48  28  46 NE17      30.22R
$$
MNZ001>005-007-008-013>017-022>024-027-028-300400-
   Northwest Minnesota

CITY           SKY/WX    TMP DP  RH WIND       PRES   REMARKS
BEMIDJI        PTCLDY    47  23  39 E3        30.25R
HALLOCK        CLOUDY    45  28  53 SE9       30.21S
ROSEAU         PTCLDY    46  30  53 SE6       30.24R
WARROAD        PTCLDY    43  32  65 SE3       30.25R
THIEF RVR FALL MOCLDY    47  29  49 CALM      30.25R
CROOKSTON      PTCLDY    54  25  32 CALM      30.24R
FOSSTON        CLEAR     43  25  49 CALM      30.25R
DETROIT LAKES  PTCLDY    50  23  34 CALM      30.25R
MOORHEAD       PTCLDY    50  27  40 NE7       30.24R
PARK RAPIDS    PTCLDY    48  22  35 CALM      30.24R
MAHNOMEN       FAIR      46  29  52 NE5       30.24R
$$
MNZ006-009>011-018-025>026-300400-
   North Central Minnesota

CITY           SKY/WX    TMP DP  RH WIND       PRES   REMARKS
BAUDETTE       PTCLDY    44  19  36 NE5       30.24R
FLAG ISLAND    CLEAR     48   9  20 CALM      30.22F
INTL FALLS     CLEAR     34  22  61 CALM      30.26R
WASKISH        PTCLDY    39  32  75 CALM      30.25R
BIG FORK       PTCLDY    41  19  42 NE3       30.26R
LONGVILLE      PTCLDY    43  30  61 E6        30.26R
GRAND RAPIDS   PTCLDY    44  20  38 SE7       30.30R
CRANE LAKE     CLEAR     28  21  74 CALM      30.29S
ORR            PTCLDY    37  12  35 CALM      30.25R
COOK           PTCLDY    37  19  48 SE3       30.29R
WALKER         FAIR      45  26  47 CALM      30.25R
$$
MNZ012-019>021-037-300400-
   Northeast Minnesota

CITY           SKY/WX    TMP DP  RH WIND       PRES   REMARKS
DULUTH         CLOUDY    38  16  40 E10       30.30R
ELY            PTCLDY    39  19  45 S3        30.29R
HIBBING        PTCLDY    37  20  50 SE5       30.30R
EVELETH        CLOUDY    40   9  27 E5        30.31R
DULUTH HARBOR  CLOUDY    39  28  65 NE14      30.33R
TWO HARBORS    CLOUDY    39  19  45 NE3       30.30R
SILVER BAY     PTCLDY    34  18  51 CALM      30.31R
GRAND MARAIS     N/A     32  24  72 CALM      30.33R
G MARAIS ARPRT CLEAR     30  16  55 NE3       30.30S
$$
MNZ029>031-032-039>041-046>048-054>057-064-300400-
   West Central Minnesota

CITY           SKY/WX    TMP DP  RH WIND       PRES   REMARKS
FERGUS FALLS   CLOUDY    46  27  46 N3        30.23R
WHEATON        CLOUDY    48  23  37 N5        30.24R
MORRIS         CLOUDY    50  25  37 E8        30.21R
ALEXANDRIA     CLOUDY    48  24  39 E7        30.23R
ELBOW LAKE     FAIR      49  28  43 NE5       30.22R
WADENA         PTCLDY    46  25  42 NE6       30.23R
GLENWOOD       CLOUDY    46  27  46 NE7       30.22R
APPLETON       CLOUDY    48  27  43 E5        30.20S
BENSON         CLOUDY    50  18  27 E5        30.22R
ORTONVILLE     CLOUDY    46  30  53 NE6       30.21R
MADISON        CLOUDY    50  27  40 E7        30.21S
WILLMAR        FAIR      50  19  29 E13G20    30.21S
$$
MNZ033>034-036-042>043-049>051-058-059-300400-
   Central Minnesota

CITY           SKY/WX    TMP DP  RH WIND       PRES   REMARKS
ST CLOUD       CLOUDY    48  17  29 E8        30.23R
SAUK CENTRE    FAIR      47  26  43 E6        30.22R
PAYNESVILLE    CLOUDY    49  11  21 E14G23    30.22F
AITKIN         CLOUDY    45  16  31 E8        30.26R
PINE RIVER     CLOUDY    48  27  43 E12       30.28R
BRAINERD       CLOUDY    47  20  34 E10       30.24R
STAPLES        CLOUDY    48  19  32 NE3       30.23R
LONG PRAIRIE   FAIR      45  27  49 NE7       30.23R
LITTLE FALLS   CLOUDY    46  21  36 E5        30.24R
LITCHFIELD     CLOUDY    50  25  37 NE7       30.22R
BUFFALO        CLOUDY    48  28  44 NE9       30.23R
MAPLE LAKE     CLOUDY    49  28  43 NE9       30.23R
HUTCHINSON     CLOUDY    50  27  41 NE12      30.21S
$$
MNZ037-044-045-052-053-300400-
   East Central Minnesota

CITY           SKY/WX    TMP DP  RH WIND       PRES   REMARKS
PRINCETON      CLOUDY    48  21  34 NE8       30.24R
MORA           CLOUDY    45  21  39 E6        30.27R
CAMBRIDGE      CLOUDY    50  28  43 NE6       30.23R
RUSH CITY      CLOUDY    46  24  43 NE9       30.26R
MOOSE LAKE     CLOUDY    39  21  48 NE3       30.28R
HINCKLEY       FAIR      43  27  52 NE6       30.28R
CLOQUET        PTCLDY    39  12  33 E9        30.29R
MCGREGOR       PTCLDY    41  23  48 E8        30.29R
$$
MNZ071>073-080-081-089-090-097-098-300400-
   Southwest Minnesota

CITY           SKY/WX    TMP DP  RH WIND       PRES   REMARKS
MONTEVIDEO     CLOUDY    48  25  40 E12       30.19F
GRANITE FALLS  CLOUDY    49  31  50 NE6       30.21S
CANBY          CLOUDY    48  27  43 CALM      30.20F
MARSHALL       MOCLDY    48  25  40 NE9       30.18F
REDWOOD FALLS  CLOUDY    50  23  34 NE6       30.17F
OLIVIA         CLOUDY    50  27  40 NE10      30.18F
PIPESTONE      MOCLDY    46  19  34 NE8       30.16R
WINDOM         MOCLDY    46  25  42 NE10      30.15S
WORTHINGTON    CLOUDY    45  26  47 NE14      30.14F
JACKSON        CLOUDY    45  28  53 NE12      30.14S
TRACY          MOCLDY    47  29  50 NE7       30.17F
SLAYTON        CLOUDY    46  25  44 NE10      30.15F
$$
MNZ065>067-074>077-082>085-091>093-300400-
   South Central Minnesota

CITY           SKY/WX    TMP DP  RH WIND       PRES   REMARKS
MANKATO        CLOUDY    49  30  48 NE8       30.17R
NEW ULM        MOCLDY    48  23  37 NE8       30.16F
ST JAMES       CLOUDY    48  28  46 NE7       30.17F
FAIRMONT       CLOUDY    47  31  53 NE10      30.14F
GLENCOE        CLOUDY    51  27  39 NE6       30.18F
FARIBAULT      CLOUDY    50  28  43 NE8       30.16F
OWATONNA       CLOUDY    46  30  53 NE7       30.15F
WASECA         CLOUDY    46  30  53 NE9       30.16F
ALBERT LEA     CLOUDY    46  30  53 NE10      30.12F
$$
MNZ078>079-086>088-094>096-300400-
   Southeast Minnesota

CITY           SKY/WX    TMP DP  RH WIND       PRES   REMARKS
ROCHESTER      CLOUDY    45  31  58 NE13      30.14R
RED WING       CLOUDY    52  23  32 E6        30.17S
STANTON        MOCLDY    51  29  42 NE15      30.17R
DODGE CENTER   CLOUDY    46  30  53 NE10      30.14F
WINONA         CLOUDY    48  32  53 E8        30.17R
AUSTIN         CLOUDY    46  30  53 NE12      30.11F
PRESTON        CLOUDY    44  29  53 NE12G18   30.12F
$$
ABBREVIATIONS USED IN REMARKS
   TC - TEMPERATURES IN CELSIUS
  WCI - WIND CHILL INDEX
   HX - HEAT INDEX
  VSB - VISIBILITY
$$




USA.gov is the U.S. government's official web portal to all federal, state and local government web resources and services.